Location: Zagreb
(45.8000°N, 16.0000°E)
Time: 03:36:50
(UTC+02:00)

Tiangong - Visible Passes

Search period start: 26 June 2022 00:00
Search period end: 06 July 2022 00:00
Orbit: 384 x 388 km, 41.5° (Epoch: 25 June)

Date Brightness Start Highest point End Pass type
(mag) Time Alt. Az. Time Alt. Az. Time Alt. Az.
26 Jun 1.7 22:57:30 10° WSW 23:00:12 36° S 23:00:12 36° S visible
27 Jun 1.8 21:58:27 10° WSW 22:01:22 33° S 22:03:50 13° ESE visible
27 Jun 3.1 23:34:59 10° WSW 23:36:05 18° WSW 23:36:05 18° WSW visible
28 Jun 1.7 22:35:48 10° WSW 22:38:46 36° S 22:39:33 31° SSE visible
29 Jun 1.8 21:36:38 10° WSW 21:39:36 37° S 21:42:34 10° ESE visible
29 Jun 2.7 23:13:22 10° WSW 23:15:06 22° SW 23:15:06 22° SW visible
30 Jun 1.9 22:14:03 10° WSW 22:16:57 32° S 22:18:23 21° SE visible
01 Jul 2.8 22:51:46 10° WSW 22:53:48 19° SSW 22:53:48 19° SSW visible
02 Jul 2.4 21:52:17 10° WSW 21:55:01 26° SSW 21:57:00 15° SE visible
03 Jul 3.2 22:30:24 10° WSW 22:32:06 14° SSW 22:32:23 14° SSW visible
04 Jul 2.9 21:30:34 10° WSW 21:32:57 19° SSW 21:35:18 10° SSE visible
